Terminal Aerodrome Forecast
Issued by NWS

Home | Current Version | Previous Version | Text Only | Print | Product List | Glossary On
Versions: 1 2 3 4 5 6 7 8 9 10 11 12
000
FTUS45 KRIW 280500
TAFJAC
TAF
KJAC 280529Z 2806/2906 35005KT P6SM SCT250
     FM281200 VRB05KT P6SM SCT120 BKN200
     FM281900 21005KT P6SM VCSH SCT080 BKN120
     FM282100 VRB10G20KT P6SM VCTS SCT070CB BKN100
     FM290300 34007KT P6SM VCSH SCT060 BKN100
      AMD LTD TO CLD VIS AND WIND=

USA.gov is the U.S. government's official web portal to all federal, state and local government web resources and services.